Weather History for Mosby, MO

Change the Weather History Date:

Thursday, January 17, 2013

  Actual Average (KMKC) Record (KMKC)
Temperature  
Mean Temperature 36 °F -  
Max Temperature 44 °F 37 °F 48 °F (1998)
Min Temperature 28 °F 21 °F 3 °F (2003)
Degree Days  
Heating Degree Days 29    
Moisture  
Dew Point 26 °F    
Average Humidity 76    
Maximum Humidity 100    
Minimum Humidity 46    
Precipitation  
Precipitation 0.00 in - - ()
Sea Level Pressure  
Sea Level Pressure 30.39 in    
Wind  
Wind Speed 3 mph (NNW)    
Max Wind Speed 13 mph    
Max Gust Speed -    
Visibility 10 miles    
Events      
Averages and records for this station are not official NWS values.
T = Trace of Precipitation, MM = Missing Value Source: NWS Daily Summary

Daily Weather History Graph

Daily Weather History Graph

Search for Another Location

Airport:

Trip Planner

Search our weather history database for the weather conditions in past years. The results will help you decide how hot, cold, wet, or windy it might be!

Date:

Astronomy

Jan. 17, 2013 Rise Set
Actual Time 7:34 AM CST 5:20 PM CST
Civil Twilight 7:05 AM CST 5:50 PM CST
Nautical Twilight 6:32 AM CST 6:22 PM CST
Astronomical Twilight 6:00 AM CST 6:55 PM CST
Moon 10:44 AM CST (1/17) No Moon Set
Length of Visible Light 10h 44m
Length of Day
9h 46m
Waxing Crescent, 38% of the Moon is Illuminated
Jan 17
Waxing Crescent
Jan 18
First Quarter
Jan 26
Full
Feb 3
Last Quarter
Feb 10
New

Hourly Weather History & Observations

Time (CST) Temp. Windchill Dew Point Humidity Pressure Visibility Wind Dir Wind Speed Gust Speed Precip Events Conditions
12:15 AM 28.4 °F - 26.6 °F 93% 30.19 in 10.0 mi Calm Calm - N/A   Clear
12:35 AM 28.4 °F - 26.6 °F 93% 30.20 in 10.0 mi Calm Calm - N/A   Clear
1:15 AM 30.2 °F 26.7 °F 28.4 °F 93% 30.22 in 10.0 mi NW 3.5 mph - N/A   Clear
1:35 AM 32.0 °F 28.7 °F 30.2 °F 93% 30.23 in 10.0 mi NNW 3.5 mph - N/A   Clear
1:55 AM 32.0 °F - 30.2 °F 93% 30.24 in 10.0 mi Calm Calm - N/A   Clear
2:15 AM 32.0 °F - 28.4 °F 87% 30.25 in 10.0 mi Calm Calm - N/A   Clear
2:35 AM 32.0 °F 27.5 °F 30.2 °F 93% 30.26 in 10.0 mi NW 4.6 mph - N/A   Clear
2:55 AM 32.0 °F 26.4 °F 30.2 °F 93% 30.27 in 10.0 mi NW 5.8 mph - N/A   Clear
3:15 AM 32.0 °F 28.7 °F 30.2 °F 93% 30.27 in 10.0 mi NW 3.5 mph - N/A   Unknown
3:35 AM 32.0 °F 26.4 °F 30.2 °F 93% 30.28 in 10.0 mi NNW 5.8 mph - N/A   Clear
3:55 AM 32.0 °F 25.6 °F 30.2 °F 93% 30.29 in 10.0 mi NNW 6.9 mph - N/A   Clear
4:15 AM 32.0 °F 25.6 °F 30.2 °F 93% 30.30 in 10.0 mi NNW 6.9 mph - N/A   Unknown
4:35 AM 32.0 °F 25.6 °F 30.2 °F 93% 30.30 in 10.0 mi NNW 6.9 mph - N/A   Clear
4:55 AM 32.0 °F 24.2 °F 30.2 °F 93% 30.32 in 10.0 mi NNW 9.2 mph - N/A   Clear
5:15 AM 32.0 °F 25.6 °F 30.2 °F 93% 30.33 in 10.0 mi NW 6.9 mph - N/A   Clear
5:35 AM 32.0 °F 25.6 °F 28.4 °F 87% 30.34 in 10.0 mi NW 6.9 mph - N/A   Clear
5:55 AM 30.2 °F 26.7 °F 28.4 °F 93% 30.35 in 10.0 mi NNW 3.5 mph - N/A   Clear
6:15 AM 30.2 °F - 28.4 °F 93% 30.36 in 10.0 mi Calm Calm - N/A   Clear
6:35 AM 30.2 °F - 28.4 °F 93% 30.37 in 10.0 mi Calm Calm - N/A   Clear
6:55 AM 30.2 °F 25.4 °F 28.4 °F 93% 30.38 in 10.0 mi NNW 4.6 mph - N/A   Clear
7:15 AM 30.2 °F 26.7 °F 28.4 °F 93% 30.39 in 10.0 mi NW 3.5 mph - N/A   Clear
7:35 AM 28.4 °F 22.2 °F 28.4 °F 100% 30.40 in 10.0 mi NNW 5.8 mph - N/A   Clear
7:55 AM 28.4 °F 22.2 °F 28.4 °F 100% 30.40 in 10.0 mi NNW 5.8 mph - N/A   Clear
8:15 AM 30.2 °F 24.3 °F 28.4 °F 93% 30.41 in 10.0 mi NNW 5.8 mph - N/A   Clear
8:35 AM 30.2 °F 24.3 °F 28.4 °F 93% 30.41 in 10.0 mi NNW 5.8 mph - N/A   Clear
8:55 AM 30.2 °F 23.4 °F 28.4 °F 93% 30.43 in 10.0 mi NNW 6.9 mph - N/A   Clear
9:15 AM 32.0 °F 24.8 °F 28.4 °F 87% 30.44 in 10.0 mi NNW 8.1 mph - N/A   Clear
9:35 AM 32.0 °F 23.0 °F 28.4 °F 87% 30.45 in 10.0 mi North 11.5 mph - N/A   Clear
9:55 AM 32.0 °F 22.5 °F 26.6 °F 80% 30.47 in 10.0 mi NNW 12.7 mph - N/A   Clear
10:15 AM 32.0 °F 24.2 °F 26.6 °F 80% 30.48 in 10.0 mi North 9.2 mph - N/A   Clear
10:35 AM 33.8 °F 27.7 °F 23.0 °F 65% 30.48 in 10.0 mi North 6.9 mph - N/A   Clear
10:55 AM 33.8 °F 28.6 °F 23.0 °F 65% 30.48 in 10.0 mi NNW 5.8 mph - N/A   Clear
11:15 AM 33.8 °F - 23.0 °F 65% 30.47 in 10.0 mi Calm Calm - N/A   Clear
11:35 AM 35.6 °F 29.9 °F 23.0 °F 60% 30.47 in 10.0 mi NNW 6.9 mph - N/A   Clear
11:55 AM 35.6 °F 31.7 °F 23.0 °F 60% 30.47 in 10.0 mi North 4.6 mph - N/A   Clear
12:15 PM 37.4 °F 32.8 °F 23.0 °F 56% 30.46 in 10.0 mi North 5.8 mph - N/A   Clear
12:35 PM 37.4 °F - 23.0 °F 56% 30.45 in 10.0 mi Calm Calm - N/A   Clear
12:55 PM 39.2 °F 37.0 °F 23.0 °F 52% 30.44 in 10.0 mi NW 3.5 mph - N/A   Clear
1:15 PM 41.0 °F - 23.0 °F 49% 30.44 in 10.0 mi Calm Calm - N/A   Clear
1:35 PM 41.0 °F 39.0 °F 23.0 °F 49% 30.43 in 10.0 mi NNW 3.5 mph - N/A   Clear
1:55 PM 41.0 °F 39.0 °F 23.0 °F 49% 30.42 in 10.0 mi WNW 3.5 mph - N/A   Clear
2:15 PM 42.8 °F 40.1 °F 23.0 °F 46% 30.42 in 10.0 mi NW 4.6 mph - N/A   Clear
2:35 PM 42.8 °F 41.1 °F 24.8 °F 49% 30.42 in 10.0 mi NNE 3.5 mph - N/A   Clear
2:55 PM 42.8 °F 40.1 °F 24.8 °F 49% 30.41 in 10.0 mi NNW 4.6 mph - N/A   Clear
3:15 PM 44.6 °F 42.2 °F 24.8 °F 46% 30.42 in 10.0 mi North 4.6 mph - N/A   Clear
3:35 PM 44.6 °F - 26.6 °F 49% 30.42 in 10.0 mi Calm Calm - N/A   Clear
3:55 PM 44.6 °F 43.1 °F 24.8 °F 46% 30.42 in 10.0 mi WNW 3.5 mph - N/A   Clear
4:15 PM 44.6 °F - 24.8 °F 46% 30.42 in 10.0 mi Calm Calm - N/A   Unknown
4:35 PM 44.6 °F - 24.8 °F 46% 30.42 in 10.0 mi Calm Calm - N/A   Clear
4:55 PM 44.6 °F - 24.8 °F 46% 30.42 in 10.0 mi Calm Calm - N/A   Clear
5:15 PM 42.8 °F - 26.6 °F 53% 30.43 in 10.0 mi Calm Calm - N/A   Clear
5:35 PM 42.8 °F - 24.8 °F 49% 30.43 in 10.0 mi Calm Calm - N/A   Clear
5:55 PM 39.2 °F - 26.6 °F 61% 30.43 in 10.0 mi Calm Calm - N/A   Clear
6:15 PM 35.6 °F - 24.8 °F 65% 30.43 in 10.0 mi Calm Calm - N/A   Clear
6:35 PM 33.8 °F - 26.6 °F 75% 30.43 in 10.0 mi Calm Calm - N/A   Clear
6:55 PM 32.0 °F - 24.8 °F 75% 30.44 in 10.0 mi Calm Calm - N/A   Clear
7:15 PM 32.0 °F - 24.8 °F 75% 30.43 in 10.0 mi Calm Calm - N/A   Clear
7:35 PM 32.0 °F - 24.8 °F 75% 30.43 in 10.0 mi Calm Calm - N/A   Clear
7:55 PM 30.2 °F - 24.8 °F 80% 30.44 in 10.0 mi Calm Calm - N/A   Clear
8:15 PM 30.2 °F - 24.8 °F 80% 30.44 in 10.0 mi Calm Calm - N/A   Clear
8:35 PM 30.2 °F - 24.8 °F 80% 30.44 in 10.0 mi Calm Calm - N/A   Clear
8:55 PM 30.2 °F - 24.8 °F 80% 30.44 in 10.0 mi Calm Calm - N/A   Clear
9:15 PM 28.4 °F - 23.0 °F 80% 30.43 in 10.0 mi Calm Calm - N/A   Clear
9:35 PM 28.4 °F - 24.8 °F 86% 30.43 in 10.0 mi Calm Calm - N/A   Clear
9:55 PM 28.4 °F - 24.8 °F 86% 30.42 in 10.0 mi Calm Calm - N/A   Clear
11:15 PM 28.4 °F 24.6 °F 24.8 °F 86% 30.41 in 10.0 mi SE 3.5 mph - N/A   Clear
11:35 PM 32.0 °F - 26.6 °F 80% 30.41 in 10.0 mi Calm Calm - N/A   Clear
11:55 PM 32.0 °F 26.4 °F 26.6 °F 80% 30.41 in 10.0 mi SSE 5.8 mph - N/A   Clear